Location: Church Tower
(37.7144°N, 119.6316°W)
Time: 19:41:11
(UTC+00:00)

Centaur D AC-28 - Pass Details

Date: 15 November 2025
Orbit: 638 x 36401 km, 28.5° (Epoch: 08 December)

Event Time Altitude Azimuth Distance (km) Brightness Sun altitude
Exits shadow 14:12:21 - 276° (W) 9,230 6.9 -5.8°
Reaches altitude 10° 14:19:26 10° 270° (W) 6,434 6.1 -4.4°
Maximum altitude 14:30:27 28° 217° (SW) 2,141 4.2 -2.4°
Drops below altitude 10° 14:34:32 10° 155° (SSE) 2,315 5.3 -1.7°
Sets 14:36:26 0° 140° (SE) 2,994 6.4 -1.3°
